Weather History for Pasco, WA

Change the Weather History Date:

Wednesday, February 6, 2013

  Actual Average Record
Temperature  
Mean Temperature 46 °F 38 °F  
Max Temperature 55 °F 46 °F 59 °F (1999)
Min Temperature 36 °F 29 °F 0 °F (1989)
Degree Days  
Heating Degree Days 19 28  
Month to date heating degree days 149 168  
Since 1 July heating degree days 3060 3319  
Cooling Degree Days 0 0  
Month to date cooling degree days 0 0  
Year to date cooling degree days 0 0  
Moisture  
Dew Point 34 °F    
Average Humidity 65    
Maximum Humidity 85    
Minimum Humidity 45    
Precipitation  
Precipitation 0.00 in - 0.24 in (1951)
Month to date precipitation T  
Year to date precipitation 0.36  
Snow  
Snow 0.00 in - - ()
Snow Depth 0.00 in    
Sea Level Pressure  
Sea Level Pressure 30.03 in    
Wind  
Wind Speed 11 mph (SSW)    
Max Wind Speed 22 mph    
Max Gust Speed 26 mph    
Visibility 10 miles    
Events      
T = Trace of Precipitation, MM = Missing Value Source: NWS Daily Summary

Daily Weather History Graph

Daily Weather History Graph

Search for Another Location

Airport:

Trip Planner

Search our weather history database for the weather conditions in past years. The results will help you decide how hot, cold, wet, or windy it might be!

Date:

Astronomy

Feb. 06, 2013 Rise Set
Actual Time 7:12 AM PST 5:09 PM PST
Civil Twilight 6:40 AM PST 5:40 PM PST
Nautical Twilight 6:05 AM PST 6:16 PM PST
Astronomical Twilight 5:30 AM PST 6:51 PM PST
Moon 4:07 AM PST (2/6) 1:26 PM PST (2/6)
Length of Visible Light 11h 00m
Length of Day
9h 56m
Waning Crescent, 16% of the Moon is Illuminated
Feb 6
Waning Crescent
Feb 9
New
Feb 17
First Quarter
Feb 25
Full
Mar 4
Last Quarter

Hourly Weather History & Observations

Time (PST) Temp. Windchill Dew Point Humidity Pressure Visibility Wind Dir Wind Speed Gust Speed Precip Events Conditions
12:53 AM 45.0 °F 37.6 °F 34.0 °F 65% 30.01 in 10.0 mi WSW 17.3 mph - N/A   Clear
1:53 AM 44.1 °F 40.1 °F 34.0 °F 68% 30.03 in 10.0 mi SSW 6.9 mph - N/A   Clear
2:53 AM 43.0 °F 36.4 °F 35.1 °F 74% 30.03 in 10.0 mi SSW 12.7 mph - N/A   Partly Cloudy
3:53 AM 44.1 °F 38.1 °F 34.0 °F 68% 30.04 in 10.0 mi SW 11.5 mph - N/A   Scattered Clouds
4:53 AM 43.0 °F 37.2 °F 34.0 °F 71% 30.04 in 10.0 mi SW 10.4 mph - N/A   Partly Cloudy
5:53 AM 42.1 °F 37.1 °F 33.1 °F 70% 30.05 in 10.0 mi WSW 8.1 mph - N/A   Partly Cloudy
6:53 AM 44.1 °F 35.7 °F 33.1 °F 65% 30.06 in 10.0 mi WSW 20.7 mph 26.5 mph N/A   Clear
7:53 AM 44.1 °F 40.1 °F 33.1 °F 65% 30.08 in 10.0 mi SSW 6.9 mph - N/A   Clear
8:53 AM 46.9 °F - 34.0 °F 61% 30.09 in 10.0 mi SSW 10.4 mph - N/A   Clear
9:53 AM 50.0 °F - 34.0 °F 54% 30.10 in 10.0 mi SW 13.8 mph - N/A   Clear
10:53 AM 52.0 °F - 32.0 °F 47% 30.10 in 10.0 mi WSW 16.1 mph 26.5 mph N/A   Clear
11:53 AM 52.0 °F - 33.1 °F 49% 30.09 in 10.0 mi SW 17.3 mph 23.0 mph N/A   Clear
12:53 PM 52.0 °F - 33.1 °F 49% 30.08 in 10.0 mi SW 13.8 mph 21.9 mph N/A   Clear
1:53 PM 54.0 °F - 32.0 °F 43% 30.06 in 10.0 mi SW 13.8 mph - N/A   Clear
2:53 PM 54.0 °F - 32.0 °F 43% 30.05 in 10.0 mi SW 9.2 mph - N/A   Clear
3:53 PM 52.0 °F - 34.0 °F 50% 30.03 in 10.0 mi WSW 3.5 mph - N/A   Clear
4:53 PM 50.0 °F - 34.0 °F 54% 30.01 in 10.0 mi ESE 4.6 mph - N/A   Scattered Clouds
5:53 PM 45.0 °F 41.8 °F 36.0 °F 71% 30.00 in 10.0 mi East 5.8 mph - N/A   Unknown
6:53 PM 45.0 °F 43.5 °F 35.1 °F 68% 29.99 in 10.0 mi East 3.5 mph - N/A   Clear
7:53 PM 43.0 °F 41.3 °F 35.1 °F 74% 29.98 in 10.0 mi ESE 3.5 mph - N/A   Clear
8:53 PM 41.0 °F 39.0 °F 34.0 °F 76% 29.96 in 10.0 mi SE 3.5 mph - N/A   Clear
9:53 PM 39.9 °F - 33.1 °F 77% 29.94 in 10.0 mi Calm Calm - N/A   Clear
10:53 PM 37.9 °F - 33.1 °F 83% 29.91 in 10.0 mi Calm Calm - N/A   Clear
11:53 PM 37.0 °F 32.4 °F 33.1 °F 86% 29.91 in 10.0 mi NW 5.8 mph - N/A   Clear